Regional Weather Roundup
Issued by NWS

Home | Current Version | Previous Version | Graphics & Text | Print | Product List | Glossary On
Versions: 1 2 3 4 5 6 7 8 9 10 11 12 13 14 15 16 17 18 19 20 21 22 23 24 25 26 27 28 29 30 31 32 33 34 35 36 37 38 39 40 41 42 43 44 45 46 47 48 49 50
000
ASUS45 KSLC 041810
RWRUT

UTAH REGIONAL WEATHER ROUNDUP
NATIONAL WEATHER SERVICE SALT LAKE CITY UT
1200 PM MDT WED MAY 04 2016

UTZ001>011-023>025-041900-

NORTHERN UTAH

CITY           SKY/WX    TMP DP  RH WIND       PRES   REMARKS
BRIGHAM CITY   SUNNY     69  32  25 CALM      30.14F
HILL AFB       MOSUNNY   71  32  23 SE12G20   30.14F
LOGAN          SUNNY     66  42  41 VRB3      30.14F
OGDEN          SUNNY     73  31  21 S9        30.13F
PROVO AIRPORT  MOSUNNY   64  39  39 VRB6      30.15F
SALT LAKE CITY PTSUNNY   77  30  17 S16G23    30.11F
VERNAL         SUNNY     65  33  30 S3        30.24F
WENDOVER       SUNNY     64  39  39 E8        30.12F
HEBER CITY     SUNNY     64  37  36 NW5       30.17F

$$

UTZ012>022-026-027-041900-

SOUTHERN/CENTRAL UTAH

CITY           SKY/WX    TMP DP  RH WIND       PRES   REMARKS
BLANDING       SUNNY     67  33  27 SE10      30.36F
BRYCE CANYON   SUNNY     63  28  26 S21G29    30.28F
CEDAR CITY     SUNNY     72  30  21 S16G29    30.12F
DELTA          MOSUNNY   72  30  21 S9G17     30.13F
HANKSVILLE     SUNNY     70  28  21 CALM      30.21F
MILFORD        MOSUNNY   74  31  20 S12G25    30.11F
MOAB/CYNLANDS  SUNNY     74  32  21 SE9       30.18F
PRICE          SUNNY     67  30  25 S8        30.25F
ST GEORGE      CLEAR     79  37  22 N5        30.02F

$$

REGIONAL REPORTS     COLORADO/ARIZONA

CITY           SKY/WX    TMP DP  RH WIND       PRES   REMARKS
CRAIG, CO      SUNNY     69  31  24 MISG      30.27F
GRAND JUNCTION SUNNY     69  30  23 S5        30.22F
RIFLE          SUNNY     70  28  21 VRB5      30.25F
MONTROSE       SUNNY     71  29  21 NW10      30.27F
CORTEZ         SUNNY     71  31  22 SE8       30.29F
PAGE, AZ       SUNNY     72  34  24 N8        30.15F
GRAND CANYON   SUNNY     70  26  19 SW20G28   30.23S
KINGMAN        SUNNY     82  31  15 SW9       30.02S
FLAGSTAFF      SUNNY     66  27  23 SW14G23   30.27S

$$

REGIONAL REPORTS    NEVADA/IDAHO/WYOMING

CITY           SKY/WX    TMP DP  RH WIND       PRES   REMARKS
LAS VEGAS, NV  PTSUNNY   82  32  16 VRB3      29.91F
ELY            PTSUNNY   66  30  26 S16G29    30.14F
ELKO           PTSUNNY   71  34  25 S13G18    30.06F
POCATELLO, ID  MOSUNNY   71  41  33 NE5       30.12F
BURLEY         SUNNY     72  40  31 VRB5      30.06F
EVANSTON, WY   SUNNY     66  21  18 SW21G28   30.26F
ROCK SPRINGS   SUNNY     66  27  23 SW9       30.26F
KEMMERER         N/A     64  19  17 S10G16    30.28F

$$



USA.gov is the U.S. government's official web portal to all federal, state and local government web resources and services.